Main page
METAR-TAF:

METAR-TAF

Airports :

Kharg Airport

Kharg Island, Iran

latitude: 29-15-34N, longitude: 50-19-24E, elevation: 5 m

Current weather observation

The report was made 13 minutes ago, at 08:00 UTC
Wind 4 kt from the Southeast
Temperature 35°C
Humidity 47%
Pressure 1001 hPa
Visibility: 6000 m

METAR: OIBQ 250800Z 13004KT 6000 NSC 35/22 Q1001

Time: 12:43 (08:13 UTC)


TAF: missing

Weather observations and forecasts of more than 4000 airports (METAR and TAF reports).

The available stations are represented by yellow and red dots on the map.

Hover mouse over dot to see the name of the station.

Then click to see weather observations and forecasts.

To change the map : click on the green buttons with a black cross to zoom in, on the green button with a dash to zoom out, or on the green arrows for adjacent maps.


METAR-TAF: